STARLINK-32915, 63152

Orbit data source: Space-Track

STARLINK-32915, 63152 is a payload satellite owned by SpaceX/Seattle (US) in LEO that was launched on Mon, 03 Mar 2025 UTC via an FALCON 9 launch vehicle from the Air Force Eastern Test Range (AFETR). Payload-class satellites include a variety of spacecraft equipped with specific instruments for various scientific and technological missions. These include communications satellites like Starlink; space stations such as the ISS; scientific satellites like the Hubble; Earth observation satellites from companies like Planet Labs, Umbra, and HawkEye 360; GPS; miniature CubeSats for education and research; and military/defense satellites.

Loading next visibility...
Identifier
63152, 2025-043W
Orbit
LEO
Last TLE update
1 day ago
Origin
Manufacturer
SpaceX/Seattle
Mission
Operational Commercial Communications
Bus & Motor
STARLINK V2M, Unknown motor
Mass
730 kg wet, ~700 kg dry
Launch date (UTC)
2025-03-03 (2 months ago)
Launch vehicle
FALCON 9
Launch site
Air Force Eastern Test Range (AFETR)
Object type
Payload
Rocket body
Debris
Shape & HBR
Box + 2 Pan, 29 m
Radar Cross Section
33.884 m², Large (>1 m²)

Expand to show TLE details & history

TLE from 1 day ago
0 STARLINK-32915
1 63152U 25043W   25118.98885695  .00000331  00000-0  21574-4 0  9996
2 63152  43.0049   0.3151 0002256 304.5969  55.4669 15.27566449  9777
Epoch: 2025-04-28T23:43Z
Definitive object data (Epoch: 2025-04-28T23:43:57.24Z)
Latitude
-0.00007°
Longitude
147.13155°
Altitude
481.989 km
Speed
7.627 km/s
True Right ascension
00h 01m 15s
True Declination
0° 00' 00"
Sunlit
Object was in daylight at TLE epoch
Visualization TLE readout
Latitude
-43.15912°
Longitude
49.66969°
Altitude
495.311 km
Speed
7.618 km/s
Apparent Right ascension
12h 30m 16s
Apparent Declination
-77° 38' 38"
Sunlit
Object is in full shadow
Visualization observer readout
Local Sidereal Time
19:00:21
Azimuth
196.178° SSW
Elevation
-40.413°
Doppler factor
1
Orbital elements
Apogee altitude
486.582 km
Perigee altitude
483.486 km
Semi-major axis
6,863.171 km
Eccentricity
0.0002256
Inclination
43.0049°
RAAN
0.3151°
Arg. of periapsis
304.5969°
True anomaly
55.4882°
Mean anomaly
55.4669°
Eccentric anomaly
55.47755°
Mean motion
3.8173 °/min
BSTAR
0.000021574
Orbital period
94.31 mins
Loading maneuver chart data...
Loading SW <> Apogee altitude chart data...
Loading historical data...
Loading historical data...
Loading historical data...
Loading historical data...
Loading historical data...
Loading historical data...
Loading historical data...

STARLINK-32915 Visibility forecast

Observer location: undefined°, undefined°

Span
Click to sort rows by Start time (UTC) header in descending order
Start Az.
Max El. time (UTC)
Max El. Az.
Max El.
End time (UTC)
End Az.
5 mins2025-04-30 18:17:11.576Z197.329° SSW2025-04-30 18:20:11.576Z141.051° SSE21.157°2025-04-30 18:22:11.576Z101.42° ESE
6 mins2025-04-30 19:56:11.576Z251.316° W2025-04-30 19:58:11.576Z252.736° W42.619°2025-04-30 20:02:11.576Z71.882° E
6 mins2025-04-30 21:35:11.576Z286.99° WNW2025-04-30 21:38:11.576Z23.605° NE36.896°2025-04-30 21:41:11.576Z75.675° E
5 mins2025-04-30 23:15:11.576Z291.43° WNW2025-04-30 23:17:11.576Z74.424° E44.173°2025-04-30 23:20:11.576Z105.033° ESE
4 mins2025-05-01 00:54:11.576Z249.508° W2025-05-01 00:55:11.576Z226.472° WSW23.165°2025-05-01 00:58:11.576Z161.374° S
|